Tracking 19709 objects as of 18-Jun-2019
HD Live streaming from Space Station
objects crossing your sky now

THORAD DELTA 1 DEB

Track THORAD DELTA 1 DEB now!
10-day predictions


NORAD ID: 42602
Int'l Code: 1974-089FT
Perigee: 1,381.2 km
Apogee: 1,905.8 km
Inclination: 101.4 °
Period: 119.0 minutes
Semi major axis: 8014 km
RCS: Unknown
Launch date: November 15, 1974
Source: United States (US)
Launch site: AIR FORCE WESTERN TEST RANGE (AFWTR)

Note: This is SATELLITE DEBRIS
aabbcc
Your satellite tracking list
Your tracking list is empty




NASA's NSSDC Master Catalog

Two Line Element Set (TLE):
1 42602U 74089FT  19167.37197283  .00000045  00000-0  75760-3 0  9993
2 42602 101.4131  11.0677 0327267  44.1330 318.5344 12.10001604660602
Source of the keplerian elements: AFSPC